Temp
80 80 79 79 79 78 77 78 78 78 78 79 79 79 78 77 77 75 75 76 76 74 75 75 75 75 77 79 80 79 78 76 72 76 79 79 77 77 80 80 80 82 83
77 76 75 75 76 74 75 75 76 76 77 78 78 78 78 78 77 75 74 75 75 74 75 74 74 77 74 74 76 73 75 75 72 68 73 75 75 77 77 75 75 80 78
76 76 74 73 73 72 72 72 73 74 75 75 76 76 76 76 76 76 76 75 74 75 75 74 75 74 72 74 74 74 76 76 75 73 72 75 75 76 76 74 72 75 80
74 74 72 70 70 70 70 70 71 72 72 72 73 74 74 75 75 75 75 75 75 75 74 74 74 74 73 72 72 72 72 71 71 71 71 73 74 74 76 70 73 75 76
71 71 70 70 70 70 69 69 69 69 70 71 71 72 72 73 75 73 72 72 72 72 73 73 72 71 68 69 75 72 71 71 71 71 70 72 74 73 72 74 68 73 76
68 69 69 69 69 68 68 67 67 67 68 68 68 69 68 71 60 53 58 67 69 69 70 71 73 67 66 60 58 59 65 69 67 68 68 67 65 70 72 71 69 62 66
67 68 68 68 67 67 68 67 65 64 64 64 64 65 64 65 54 50 51 63 63 64 64 66 69 74 67 71 61 56 56 53 55 64 63 64 65 66 67 69 68 69 71
66 67 68 68 66 66 65 64 62 63 62 62 62 63 62 63 51 47 48 59 60 60 62 63 64 66 64 63 66 65 66 68 64 66 65 66 66 69 67 66 67 67 70
65 65 66 66 63 62 61 60 60 60 58 57 58 58 58 58 49 46 48 53 53 54 59 60 62 63 58 50 59 60 64 65 63 54 53 52 52 52 55 68 68 63 58
63 63 63 62 60 58 57 55 55 54 54 55 53 53 53 53 48 45 46 49 51 58 60 60 52 54 49 46 57 59 57 59 64 66 66 60 53 61 50 64 69 62 55
62 61 59 59 55 53 52 52 49 46 44 42 42 43 44 44 46 43 43 47 51 55 56 57 58 48 46 46 47 56 55 59 61 62 62 63 65 62 62 64 67 61 56
58 56 54 52 48 45 41 40 39 39 40 41 42 43 46 47 46 46 44 44 50 54 54 57 57 48 45 44 45 48 45 47 60 61 61 57 57 59 62 67 64 60 58
49 46 42 40 38 38 38 37 39 40 39 40 42 43 44 48 53 47 44 43 44 48 56 55 46 44 44 46 43 43 43 53 53 52 51 52 57 65 66 61 59 58 61
39 36 36 36 38 40 42 41 40 40 40 41 41 41 43 48 51 52 47 46 46 51 52 56 54 52 45 48 48 50 51 51 49 49 51 53 58 58 58 60 59 62 64
36 37 37 38 39 40 40 40 40 42 41 39 40 41 40 42 46 43 40 42 45 46 44 55 58 55 55 52 55 53 55 54 55 54 53 55 56 57 59 62 62 66 65
35 36 35 36 38 38 37 37 41 39 39 39 38 38 41 40 40 40 39 39 39 39 51 57 53 55 52 55 55 54 56 54 55 56 57 59 62 65 67 65 68 65 66
32 33 34 35 35 36 38 38 37 40 39 39 38 38 38 39 39 39 39 38 38 39 50 50 52 53 52 59 56 55 61 67 66 65 65 70 71 72 69 72 72 71 72
34 35 35 35 35 37 39 39 40 39 38 40 41 40 39 38 38 37 37 38 46 48 51 51 56 56 56 57 61 60 63 68 71 73 72 72 72 71 72 72 73 72 70
34 33 34 35 37 39 41 41 40 40 40 40 41 42 41 38 37 38 38 50 53 51 50 53 57 58 55 57 60 64 67 68 72 73 73 73 73 73 72 72 71 51 59
34 34 35 36 39 42 42 40 40 40 40 40 42 44 45 44 48 51 52 57 57 49 53 56 59 59 58 57 59 65 67 68 74 73 73 74 75 76 75 75 74 72 72
35 35 34 40 42 43 41 41 42 42 42 42 43 45 34 49 53 53 56 62 52 49 56 61 61 64 60 66 69 69 72 71 75 75 75 75 75 75 76 76 76 77 75
36 36 38 40 42 42 42 44 48 47 42 42 44 50 37 55 59 60 62 55 50 50 58 61 63 66 72 71 74 75 68 72 76 75 75 76 76 76 76 76 76 76 72
36 35 36 40 43 40 42 46 47 45 43 42 43 43 48 54 57 63 61 52 49 53 60 62 65 69 71 70 71 67 71 76 77 77 76 76 76 76 76 75 75 75 73
34 34 34 36 38 39 41 44 43 41 44 46 50 53 54 51 55 54 48 47 50 57 62 66 68 71 71 72 74 80 78 78 78 77 77 76 74 70 77 76 76 73 75
33 33 32 32 33 34 36 38 40 40 41 45 50 53 54 50 48 48 48 48 50 54 64 68 70 70 72 73 76 75 49 38 69 55 77 75 73 71 74 75 74 73 71
32 32 32 32 31 31 32 33 34 36 38 40 44 46 48 47 48 49 50 55 60 67 69 71 71 72 72 74 69 42 36 39 59 41 73 76 74 74 73 71 70 69 66
MSLP
1008.06 1008.30 1008.62 1008.77 1008.84 1008.97 1009.12 1009.13 1009.20 1009.38 1009.43 1009.41 1009.36 1009.30 1009.36 1009.52 1009.69 1009.77 1009.68 1009.41 1009.22 1009.43 1009.24 1009.03 1008.99 1009.05 1008.81 1008.47 1008.11 1007.71 1007.53 1007.38 1006.65 1006.02 1005.88 1005.81 1005.70 1005.51 1005.13 1004.93 1004.84 1004.49 1004.12
1008.65 1008.90 1009.17 1009.21 1009.16 1009.26 1009.25 1009.26 1009.31 1009.15 1009.13 1009.02 1008.88 1008.71 1008.62 1008.58 1008.72 1008.84 1008.85 1008.67 1008.42 1008.27 1008.17 1008.14 1008.01 1008.09 1008.00 1008.09 1007.98 1007.59 1007.26 1007.23 1007.06 1006.27 1006.02 1005.71 1005.35 1005.03 1004.89 1004.67 1004.55 1004.09 1004.12
1009.23 1009.26 1009.39 1009.55 1009.58 1009.61 1009.64 1009.62 1009.57 1009.33 1009.08 1008.78 1008.51 1008.24 1008.05 1007.92 1007.83 1007.74 1007.71 1007.64 1007.59 1007.34 1007.11 1007.00 1006.79 1006.91 1006.94 1006.96 1006.92 1006.77 1006.66 1006.61 1006.44 1005.96 1005.39 1005.28 1005.11 1005.04 1004.38 1004.63 1004.34 1004.04 1003.66
1009.56 1009.50 1009.60 1009.76 1009.89 1009.83 1009.77 1009.65 1009.43 1009.11 1008.72 1008.45 1008.19 1007.89 1007.64 1007.41 1007.17 1006.94 1006.69 1006.42 1006.19 1006.04 1006.03 1006.07 1005.98 1005.86 1005.76 1005.96 1006.07 1006.11 1006.27 1006.27 1006.20 1005.88 1005.29 1004.58 1004.47 1004.55 1004.16 1004.37 1003.68 1003.52 1003.28
1009.80 1009.62 1009.52 1009.46 1009.44 1009.37 1009.30 1009.16 1008.89 1008.62 1008.30 1008.03 1007.69 1007.34 1007.02 1006.75 1006.41 1006.14 1006.11 1005.82 1005.38 1005.07 1004.87 1005.09 1005.20 1005.25 1005.12 1005.00 1004.89 1004.84 1005.15 1005.33 1005.33 1005.12 1004.69 1004.27 1003.48 1003.33 1003.39 1003.53 1003.78 1003.33 1002.85
1009.92 1009.59 1009.35 1009.17 1008.97 1008.79 1008.65 1008.43 1008.20 1007.95 1007.70 1007.41 1007.00 1006.60 1006.21 1005.88 1005.63 1005.87 1006.06 1005.39 1004.86 1004.53 1004.03 1003.77 1003.75 1004.05 1004.31 1004.51 1004.45 1004.49 1004.63 1004.82 1004.88 1005.10 1004.75 1004.43 1004.10 1003.72 1003.66 1003.69 1003.54 1003.84 1003.30
1009.64 1009.29 1008.96 1008.71 1008.42 1008.12 1007.84 1007.66 1007.45 1007.30 1007.12 1006.76 1006.38 1006.14 1005.60 1005.47 1005.43 1005.56 1005.72 1005.41 1004.92 1004.44 1004.03 1003.62 1003.10 1002.74 1002.79 1003.02 1003.26 1003.74 1004.12 1004.63 1004.96 1005.03 1004.75 1004.67 1004.49 1004.21 1004.15 1003.45 1003.51 1003.13 1002.84
1009.10 1008.74 1008.46 1008.14 1007.78 1007.60 1007.44 1007.20 1007.01 1006.78 1006.43 1006.09 1005.67 1005.36 1005.04 1004.91 1005.08 1005.37 1005.56 1005.22 1004.53 1004.02 1003.57 1003.19 1002.74 1002.38 1002.32 1002.57 1002.28 1002.32 1002.48 1002.68 1003.40 1003.93 1003.84 1004.01 1004.19 1004.17 1004.06 1004.02 1003.61 1003.30 1003.24
1008.51 1008.18 1007.94 1007.78 1007.56 1007.38 1007.07 1006.83 1006.62 1006.33 1006.05 1005.79 1005.45 1005.13 1004.87 1004.76 1005.08 1005.37 1005.47 1005.02 1004.26 1003.57 1002.99 1002.46 1002.21 1001.78 1001.67 1002.00 1002.21 1001.89 1001.65 1001.68 1002.14 1002.34 1002.69 1003.11 1003.40 1003.69 1004.00 1003.66 1002.95 1003.12 1003.33
1008.13 1007.89 1007.87 1007.82 1007.58 1007.27 1007.04 1006.95 1006.74 1006.56 1006.17 1005.85 1005.46 1005.28 1004.91 1004.82 1004.93 1004.99 1004.96 1004.55 1003.58 1002.31 1001.72 1001.45 1001.56 1001.53 1001.34 1001.58 1001.80 1001.56 1001.38 1001.60 1001.58 1001.35 1001.57 1001.77 1002.18 1002.33 1002.81 1003.21 1002.76 1002.84 1003.54
1008.16 1008.00 1007.84 1007.69 1007.52 1007.47 1007.32 1007.21 1007.19 1007.03 1006.75 1006.26 1005.78 1005.40 1005.12 1004.80 1004.20 1004.08 1004.01 1003.75 1002.98 1002.06 1001.29 1001.00 1000.94 1000.85 1001.07 1001.10 1001.16 1001.12 1000.91 1001.05 1000.63 1000.55 1000.55 1000.51 1000.58 1001.11 1001.62 1002.17 1002.17 1002.55 1003.10
1008.28 1008.15 1008.12 1008.14 1008.27 1008.34 1008.06 1007.68 1007.27 1006.81 1006.19 1005.56 1005.13 1004.59 1004.10 1003.64 1003.21 1002.75 1002.65 1002.70 1002.23 1001.67 1000.90 1000.42 1000.13 1000.24 1000.22 1000.27 1000.35 1000.05 1000.14 1000.39 999.80 999.45 999.39 999.63 999.91 1000.31 1000.60 1000.79 1001.21 1002.05 1002.57
1009.02 1008.88 1008.93 1008.84 1008.56 1008.26 1007.66 1007.11 1006.56 1006.07 1005.50 1004.80 1004.32 1003.75 1003.20 1002.67 1001.77 1001.32 1001.55 1001.76 1001.68 1001.19 1000.29 999.48 999.49 999.44 999.47 999.52 999.36 999.23 999.28 998.69 998.29 998.11 998.19 998.62 998.76 998.93 999.37 1000.27 1001.25 1001.88 1002.20
1009.69 1009.37 1008.95 1008.49 1007.92 1007.45 1006.83 1006.33 1005.75 1005.13 1004.62 1004.11 1003.58 1003.13 1002.61 1001.88 1001.39 1001.06 1001.40 1001.34 1000.70 999.74 999.28 998.60 998.40 998.33 998.50 998.39 997.87 997.51 996.65 995.43 995.01 995.27 995.97 997.01 997.64 998.44 999.03 999.89 1000.25 1001.06 1001.19
1009.56 1009.00 1008.56 1007.98 1007.34 1006.68 1006.13 1005.51 1004.89 1004.21 1003.90 1003.51 1003.04 1002.70 1002.25 1001.64 1001.33 1001.43 1001.61 1001.28 1000.77 1000.07 999.58 997.91 997.30 997.30 997.22 997.26 996.71 995.97 994.90 993.41 991.84 992.73 994.29 995.38 996.46 997.34 998.30 999.06 999.46 999.70 999.51
1009.25 1008.71 1008.21 1007.52 1006.77 1006.09 1005.37 1004.46 1003.79 1003.45 1003.04 1002.76 1002.43 1002.29 1001.85 1001.57 1001.41 1001.27 1001.08 1000.85 1000.31 999.88 998.87 997.49 996.91 996.62 996.53 995.86 995.61 995.39 994.29 993.59 992.36 992.46 993.31 994.29 995.61 996.52 997.41 998.22 998.38 998.65 998.80
1009.10 1008.32 1007.56 1006.86 1006.15 1005.35 1004.52 1003.76 1002.76 1002.12 1002.06 1001.77 1001.46 1001.21 1001.15 1000.99 1000.90 1000.82 1000.67 1000.35 999.82 999.25 998.30 997.38 996.72 996.36 995.87 995.22 995.16 995.02 993.96 993.27 993.14 993.29 993.61 993.95 994.65 995.39 996.27 996.53 997.02 997.91 997.95
1008.41 1007.68 1006.99 1006.19 1005.49 1004.64 1003.77 1002.96 1002.30 1001.72 1001.36 1000.98 1000.49 1000.36 1000.17 1000.12 1000.19 1000.20 1000.12 1000.04 999.10 998.22 997.44 996.74 996.15 995.84 995.26 994.85 994.72 994.64 994.18 993.20 993.08 993.14 993.69 994.07 994.70 995.26 995.74 996.21 996.68 997.23 997.73
1007.87 1007.05 1006.38 1005.62 1004.76 1003.94 1003.09 1002.51 1002.08 1001.66 1001.27 1000.72 1000.16 999.55 999.42 999.78 999.89 999.87 999.65 999.06 998.00 997.81 997.52 996.45 996.26 995.41 995.12 995.05 994.69 994.42 994.16 993.68 993.37 993.60 994.03 994.39 994.82 995.11 995.46 995.95 996.58 997.36 998.07
1007.30 1006.54 1005.88 1004.99 1004.04 1003.28 1002.84 1002.38 1001.93 1001.45 1000.97 1000.52 999.96 999.52 999.51 999.66 999.38 998.89 998.64 997.76 997.65 997.74 997.42 996.42 995.93 995.30 994.97 994.76 994.45 994.27 994.36 993.97 993.64 993.99 994.29 994.68 994.86 995.06 995.36 995.73 996.43 997.32 997.52
1007.03 1006.22 1005.51 1004.52 1003.76 1003.15 1002.78 1002.31 1001.78 1001.20 1000.87 1000.49 999.99 999.64 999.44 999.06 998.42 998.17 997.50 997.18 998.02 997.77 997.11 996.21 995.84 994.80 994.83 994.48 994.46 994.27 993.95 993.74 993.67 994.19 994.60 994.91 995.21 995.24 995.46 995.82 996.07 996.20 996.68
1007.01 1006.24 1005.44 1004.62 1003.95 1003.29 1002.80 1002.27 1001.49 1001.08 1001.07 1000.66 1000.19 999.39 999.27 998.47 997.59 997.16 997.02 997.79 998.13 997.74 997.22 996.60 995.62 994.90 993.76 993.81 993.80 993.64 993.88 993.83 994.10 994.55 994.93 995.11 995.16 995.20 995.41 995.74 996.12 996.55 997.27
1007.20 1006.48 1005.80 1005.03 1004.34 1003.65 1003.06 1002.27 1001.81 1001.65 1001.29 1000.79 1000.32 999.90 999.17 998.39 997.79 997.39 997.47 998.29 998.55 998.13 997.20 996.73 995.95 994.77 994.66 994.22 994.32 994.27 993.96 994.11 994.63 994.91 995.07 995.18 995.23 995.60 996.07 996.29 996.49 996.65 997.13
1007.74 1007.15 1006.59 1005.99 1005.38 1004.63 1004.02 1002.90 1002.55 1002.12 1001.54 1000.97 1000.19 999.33 998.78 998.52 998.24 998.50 998.62 998.68 998.61 998.03 997.18 996.30 995.70 994.75 995.00 995.00 994.88 994.28 994.59 995.14 995.30 995.39 995.47 995.63 996.23 996.76 996.62 996.68 996.84 997.15 997.60
1008.45 1007.87 1007.38 1006.91 1006.42 1005.87 1005.22 1004.47 1003.77 1003.27 1002.64 1001.85 1000.75 999.94 999.44 999.27 999.24 999.12 998.93 998.77 998.36 997.62 996.29 995.80 995.62 995.56 995.46 995.19 995.00 995.39 996.10 996.39 995.93 996.30 996.44 996.65 996.89 997.07 997.02 996.99 997.24 997.60 997.86
1009.25 1008.74 1008.24 1007.77 1007.37 1006.90 1006.33 1005.79 1005.14 1004.40 1003.68 1003.04 1002.38 1001.62 1000.86 1000.46 1000.14 999.85 999.31 998.22 997.22 996.07 995.62 995.45 995.50 995.47 995.68 995.72 996.35 996.81 997.21 997.11 997.13 997.36 997.07 997.06 997.01 997.08 997.44 997.57 997.61 998.02 998.55
Wind_Speed
3 2 3 4 5 6 7 8 10 10 12 12 13 14 15 15 15 13 14 15 15 14 13 13 14 13 11 11 11 11 11 12 15 13 12 12 14 15 14 12 12 11 10
6 5 5 5 5 5 6 8 10 11 13 14 14 15 16 17 16 17 18 17 19 18 18 17 17 13 14 13 12 13 12 11 13 16 14 14 15 14 15 14 10 10 8
6 6 5 5 6 6 6 7 8 10 11 12 13 15 17 18 18 19 19 20 21 20 18 18 18 17 16 15 14 14 13 11 12 13 14 12 13 14 14 12 10 10 9
7 7 7 7 8 8 9 10 11 12 12 13 14 15 16 17 18 18 19 20 20 20 20 20 20 20 19 17 15 15 13 13 13 13 14 14 12 12 11 10 11 8 10
9 9 9 10 11 12 12 13 14 14 14 16 17 18 19 17 15 19 19 20 20 20 20 21 21 22 23 19 14 16 15 13 13 13 13 13 14 10 12 8 9 9 9
11 12 12 13 14 14 15 15 16 16 17 17 18 19 19 15 15 7 10 17 19 20 19 19 20 21 21 20 18 17 18 15 14 14 14 13 14 12 11 12 9 6 10
13 14 15 15 16 17 17 17 17 17 17 18 18 19 20 20 13 10 11 16 19 19 20 19 19 18 18 23 23 21 18 13 15 15 16 14 15 14 15 13 13 11 12
16 16 17 17 17 17 17 18 18 17 17 17 18 18 18 16 10 6 9 16 18 19 19 20 20 21 18 18 19 20 20 20 17 15 17 16 15 15 14 13 14 11 10
17 17 17 17 18 18 18 18 17 16 16 16 16 18 18 18 14 12 11 13 13 16 17 16 18 21 21 13 15 15 19 16 14 10 12 14 15 15 14 13 14 9 6
17 17 17 17 17 18 17 17 15 14 16 14 16 15 16 17 18 15 14 9 15 15 14 15 13 15 10 9 12 14 15 14 19 20 19 16 17 19 15 15 14 11 6
18 17 17 17 17 16 15 14 13 12 13 13 14 14 15 15 15 16 16 12 12 13 12 11 10 11 16 18 19 16 17 16 20 17 15 13 13 11 11 12 16 11 7
18 17 17 17 13 12 14 13 14 13 14 14 13 13 11 13 19 20 21 19 16 15 14 11 11 16 14 14 14 16 14 15 15 16 15 12 10 11 11 14 10 8 5
17 17 15 14 12 12 13 12 11 11 10 11 10 10 9 9 10 10 7 9 15 14 13 13 9 8 10 13 18 19 20 14 16 16 15 13 12 14 12 7 8 8 10
16 14 11 12 13 13 10 9 10 10 10 10 9 9 8 10 9 7 4 6 13 10 14 15 17 15 13 13 10 13 11 12 14 13 13 12 11 10 9 10 9 10 10
13 12 11 10 12 12 11 10 9 10 10 10 9 8 8 9 8 5 7 9 10 12 12 11 9 8 8 7 9 8 9 9 6 13 12 13 12 11 10 10 8 10 8
12 10 9 10 9 9 9 11 15 17 20 21 22 16 11 15 14 13 15 18 19 17 9 10 8 3 6 8 4 3 5 3 8 12 13 14 14 15 15 12 9 7 9
11 11 9 11 9 9 9 9 10 7 13 17 18 17 17 16 12 12 15 17 20 10 6 6 4 4 7 4 3 4 2 7 11 10 10 13 13 12 12 12 11 11 8
12 19 10 8 9 9 9 9 8 6 7 7 8 9 11 13 13 13 14 11 7 4 5 2 4 3 6 4 6 4 4 4 10 10 11 11 11 11 10 10 8 6 8
10 8 8 8 9 11 8 6 6 6 6 7 7 8 2 5 7 8 9 8 2 3 5 5 4 3 4 3 4 5 6 8 8 10 9 9 9 8 9 9 6 4 7
9 14 12 8 8 6 6 6 6 6 5 5 5 4 1 3 3 5 7 7 3 4 5 4 4 5 5 0 2 4 5 7 9 9 8 8 7 7 7 8 8 8 6
7 8 10 7 6 6 5 5 5 4 4 5 5 1 4 5 5 6 6 2 1 4 5 4 5 4 6 5 7 5 9 5 8 8 8 7 5 5 5 5 5 3 5
7 7 7 7 7 7 5 5 5 5 6 6 6 4 5 6 4 3 2 3 1 5 5 5 6 6 3 6 5 6 3 5 8 8 6 5 5 5 5 4 4 3 6
8 8 8 7 8 7 8 7 6 7 5 5 5 5 5 4 5 1 2 2 0 4 4 5 6 2 3 2 4 5 5 7 7 6 5 5 4 4 3 4 3 3 3
8 9 9 9 9 9 9 7 7 7 6 7 6 6 5 5 7 7 3 3 3 4 6 5 6 3 5 3 2 0 7 6 6 6 5 5 6 2 2 2 1 1 2
9 9 8 8 9 9 9 9 9 9 9 9 10 9 8 6 6 4 3 3 6 7 7 4 5 5 6 3 5 11 8 7 8 5 5 6 6 3 4 4 1 3 3
9 10 8 8 8 8 9 9 9 9 9 9 10 11 11 10 8 7 7 5 2 2 4 4 6 7 7 6 11 8 6 8 7 8 3 3 4 5 5 5 3 3 3
Wind_Direction
29 355 301 297 289 279 271 264 260 262 260 257 251 246 242 244 243 242 246 256 238 237 239 240 241 247 258 269 273 276 277 282 286 283 277 279 271 277 280 281 278 277 263
27 27 19 3 334 303 281 277 274 266 263 262 261 258 255 251 247 244 248 249 246 244 242 242 244 246 241 244 260 267 277 289 288 288 289 290 289 291 291 284 267 260 262
357 350 353 332 318 306 294 287 280 275 269 269 268 263 261 258 257 253 252 250 250 252 250 246 243 239 242 247 253 264 271 275 280 282 290 289 290 296 291 287 284 275 264
336 328 318 312 306 297 291 283 279 277 277 273 268 265 263 262 262 262 261 259 255 252 252 251 248 245 244 240 245 249 258 264 270 270 274 273 270 272 274 279 272 252 258
320 312 306 299 293 291 289 287 285 281 276 273 272 268 266 263 259 257 257 258 259 260 258 251 249 249 256 249 244 243 249 250 259 275 278 279 271 268 284 282 283 292 298
306 300 300 296 293 290 286 284 282 279 277 276 274 272 271 269 275 267 276 272 270 270 271 264 257 247 244 239 242 246 256 256 251 267 277 282 294 295 257 263 278 295 279
301 296 293 292 288 286 286 285 282 280 280 276 276 275 274 274 271 267 261 272 268 267 269 269 266 261 243 245 234 231 235 237 242 257 266 271 278 282 290 282 278 273 280
294 292 291 289 289 288 286 283 282 279 277 276 276 277 278 277 272 281 279 279 272 271 266 264 264 262 255 262 255 245 237 234 225 231 241 255 257 264 263 272 278 293 284
295 294 294 294 293 290 286 286 285 284 284 280 278 277 279 284 289 280 273 281 276 263 257 261 262 261 256 236 252 251 251 246 246 240 255 262 258 242 259 273 260 263 282
299 301 301 297 293 290 292 293 291 286 283 287 290 288 288 292 287 265 267 266 266 261 265 266 250 262 257 234 246 249 251 252 259 266 266 251 234 232 214 241 254 251 233
305 301 299 298 300 296 296 298 302 296 289 278 276 272 270 263 267 265 261 267 265 273 273 266 266 239 232 235 237 243 246 253 257 261 254 250 243 233 227 220 233 230 208
305 305 305 308 314 308 293 285 278 272 269 268 266 266 260 261 253 252 245 238 265 268 269 266 252 248 237 234 235 240 239 242 252 256 254 252 239 209 207 223 215 198 202
307 305 308 296 287 278 275 273 274 269 265 267 265 265 265 266 270 234 256 275 267 252 258 259 284 273 260 259 245 245 241 244 239 237 235 227 220 214 225 182 170 183 201
304 289 286 282 287 283 277 270 268 269 266 263 263 264 268 267 278 292 331 316 312 266 245 248 249 255 280 281 282 264 250 240 219 216 207 199 189 195 176 160 164 184 187
288 289 290 285 289 292 284 276 268 268 269 275 270 269 267 265 270 306 302 300 297 291 310 268 248 234 251 259 253 259 277 286 210 180 172 171 159 145 153 169 183 185 179
298 299 290 292 289 286 283 284 268 252 262 263 264 258 264 266 284 287 288 286 286 288 262 253 253 255 265 263 220 251 270 307 62 94 117 131 142 158 162 179 166 179 200
295 291 289 288 285 284 282 283 292 281 248 258 262 261 255 257 266 272 273 280 284 278 236 273 266 246 276 202 203 224 208 116 135 130 122 136 145 147 161 167 164 184 198
292 291 288 287 282 284 286 288 298 294 305 308 281 253 253 245 242 249 259 281 274 309 319 283 261 269 291 215 205 204 166 121 124 120 127 134 124 149 149 163 166 173 134
302 295 291 285 283 285 296 314 317 312 305 309 307 287 225 220 233 239 252 258 284 322 329 283 283 306 163 194 201 176 144 135 119 119 124 128 137 144 148 161 123 69 123
302 294 294 289 288 317 331 336 330 325 314 307 297 343 85 165 212 234 225 247 2 321 308 275 319 307 110 169 219 126 143 141 128 131 134 134 139 138 147 153 145 163 199
311 310 306 306 335 340 341 334 329 311 340 348 344 85 296 285 191 242 246 99 360 304 307 312 309 317 180 174 163 175 169 174 119 119 128 129 136 125 141 143 150 116 116
326 328 333 342 341 348 343 341 332 3 353 339 346 347 334 279 273 264 256 101 50 289 306 319 301 318 163 145 157 150 160 122 112 117 118 133 130 117 116 137 138 165 135
350 351 351 355 355 345 350 352 14 7 338 333 335 322 298 311 309 38 74 96 203 284 290 278 263 179 146 121 91 275 118 114 113 117 121 117 109 113 136 156 174 191 155
3 5 3 3 7 359 358 355 7 352 344 350 353 349 9 20 39 47 14 316 306 282 259 232 244 206 119 150 159 144 88 107 114 100 94 86 88 191 93 12 14 351 235
11 14 8 10 10 4 360 4 1 358 355 357 351 0 10 59 48 18 335 288 273 251 237 217 195 185 168 154 133 86 63 28 75 42 99 82 63 53 17 326 314 273 277
15 18 15 10 11 8 6 3 2 358 357 356 358 356 358 6 13 17 356 333 244 141 133 148 158 161 149 137 87 82 64 58 70 28 359 57 25 17 9 331 331 342 323